This demonstration page uses our WeatherBlox Daily Observations layout. Learn more.

Left ArrowRight Arrow

41.86663, -103.66717

Hourly Observations for September 5, 2020

Temp ( °F °C ) Dew Point ( °F °C ) Humidity (%) Winds ( mph kmh ) Pressure ( in mb ) Visibility ( mi km ) Precip ( " mm )
12:53 am 00:53 Clear 59 15 45 7.2 60 60 E 5 7 30.14 1021 10 16.0934 0 0
1:53 am 01:53 Clear 58 14.4 45 7.2 62 62 ESE 5 7 30.13 1020 10 16.0934 0 0
2:53 am 02:53 Clear 58 14.4 45 7.2 62 62 E 3 6 30.13 1020 10 16.0934 0 0
3:53 am 03:53 Clear 55 12.8 45 7.2 69 69 Calm 30.13 1020 10 16.0934 0 0
4:53 am 04:53 Clear 54 12.2 46 7.8 75 75 Calm 30.12 1020 10 16.0934 0 0
5:53 am 05:53 Clear 52 11.1 46 7.8 80 80 NE 5 7 30.12 1020 10 16.0934 0 0
6:53 am 06:53 Sunny 51 10.6 44 6.7 77 77 Calm 30.14 1021 10 16.0934 0 0
7:53 am 07:53 Sunny 61 16.1 47 8.3 60 60 Calm 30.13 1020 10 16.0934 0 0
8:53 am 08:53 Sunny 68 20 48 8.9 49 49 Calm 30.13 1020 10 16.0934 0 0
9:53 am 09:53 Sunny 74 23.3 48 8.9 40 40 ESE 5 7 30.12 1020 10 16.0934 0 0
10:53 am 10:53 Sunny 82 27.8 51 10.6 34 34 VRB 3 6 30.09 1019 10 16.0934 0 0
11:53 am 11:53 Sunny 89 31.7 52 11.1 28 28 ESE 6 9 30.04 1017 10 16.0934 0 0
12:53 pm 12:53 Sunny 100 37.8 44 6.7 15 15 SSE 8 13 29.99 1016 10 16.0934 0 0
1:53 pm 13:53 Sunny 103 39.4 34 1.1 9 9 S 13 20 29.96 1014 10 16.0934 0 0
2:53 pm 14:53 Sunny 103 39.4 32 0 8 8 SSW 7 11 29.92 1013 10 16.0934 0 0
3:53 pm 15:53 Sunny 103 39.4 31 -0.6 8 8 S 3 6 29.9 1012 10 16.0934 0 0
4:53 pm 16:53 Sunny 104 40 33 0.6 8 8 NW 7 11 29.89 1012 10 16.0934 0 0
5:53 pm 17:53 Sunny 101 38.3 41 5 13 13 ENE 5 7 29.88 1012 10 16.0934 0 0
6:53 pm 18:53 Sunny 89 31.7 53 11.7 29 29 Calm 29.88 1012 10 16.0934 0 0
7:53 pm 19:53 Clear 80 26.7 50 10 35 35 SSW 3 6 29.88 1012 8 12.87472 0 0
8:53 pm 20:53 Clear 74 23.3 49 9.4 41 41 Calm 29.89 1012 10 16.0934 0 0
9:53 pm 21:53 Clear 73 22.8 45 7.2 37 37 E 5 7 29.87 1012 10 16.0934 0 0
10:53 pm 22:53 Clear 65 18.3 47 8.3 52 52 N 5 7 29.86 1011 10 16.0934 0 0
11:53 pm 23:53 Clear 63 17.2 43 6.1 48 48 NW 3 6 29.85 1011 10 16.0934 0 0

Powered by AerisWeather